Location: Unspecified
(0.0000°N, 0.0000°E)
Time: 17:31:20
(UTC+00:00)

ISS - Visible Passes

Search period start: 24 May 2017 00:00
Search period end: 03 June 2017 00:00
Orbit: 402 x 409 km, 51.6° (Epoch: 25 May)

Date Brightness Start Highest point End Pass type
(mag) Time Alt. Az. Time Alt. Az. Time Alt. Az.
26 May -0.6 04:48:43 10° N 04:50:58 17° NE 04:53:13 10° E visible
28 May -3.7 04:40:02 10° NNW 04:43:16 74° NE 04:46:31 10° SE visible
29 May -0.6 03:53:55 10° ESE 03:53:55 10° ESE 03:53:59 10° ESE visible
